Regional Weather Roundup
Issued by NWS

Home | Current Version | Previous Version | Text Only | Print | Product List | Glossary On
Versions: 1 2 3 4 5 6 7 8 9 10 11 12 13 14 15 16 17 18 19 20 21 22 23 24 25 26 27 28 29 30 31 32 33 34 35 36 37 38 39 40 41 42 43 44 45 46 47 48 49 50
000
ASUS45 KABQ 180810
RWRNM
NEW MEXICO REGIONAL WEATHER ROUNDUP
NATIONAL WEATHER SERVICE ALBUQUERQUE NM
200 AM MDT FRI AUG 18 2017

NOTE: "FAIR" MEANS FEW OR NO CLOUDS BELOW 12,000 FEET AGL WITH NO
       SIGNIFICANT WEATHER OR OBSTRUCTIONS TO VISION.

      THIS PRODUCT IS RELEASED AS TWO VERSIONS.  ONE VERSION NEAR
      THE TOP OF THE HOUR CONTAINING PRELIMINARY DATA FROM ALBUQUERQUE
      AND OTHER STATIONS.  A FINAL VERSION WITH ADDITIONAL DATA IS
      ISSUED ABOUT 10 MINUTES AFTER THE HOUR.

NMZ501-503-504-510>518-180900-
NORTHWEST PLATEAU/NORTHCENTRAL MOUNTAINS

CITY           SKY/WX    TMP DP  RH WIND       PRES   REMARKS
FARMINGTON     FAIR      58  32  37 NE8       30.19S
LOS ALAMOS     FAIR      68  33  27 NW9       30.31F
SANTA FE       FAIR      65  40  39 N10       30.23F
TAOS           FAIR      54  37  52 N8        30.34F
ANGEL FIRE     FAIR      40  37  89 CALM      30.43S

$$
NMZ402-403-502-505>509-180900-
WESTCENTRAL MOUNTAINS/SOUTHWEST MOUNTAINS

CITY           SKY/WX    TMP DP  RH WIND       PRES   REMARKS
GALLUP         FAIR      52  30  43 E3        30.28F
GRANTS         FAIR      56  26  31 CALM      30.30S
SILVER CITY    FAIR      58  41  52 N9        30.21S

$$
NMZ407-409-411-412-180900-
SOUTHERN DESERTS

CITY           SKY/WX    TMP DP  RH WIND       PRES   REMARKS
DEMING         FAIR      73  41  31 NW8       30.11S
LAS CRUCES     FAIR      74  40  28 SW6       30.13S
HOLLOMAN AFB   FAIR      77  55  46 S17       30.11S
ALAMOGORDO     FAIR      75  52  43 S10       30.11S
T OR C         FAIR      75  41  29 SW5       30.13S

$$
NMZ519>523-180900-
CENTRAL VALLEYS/CENTRAL HIGHLANDS

CITY           SKY/WX    TMP DP  RH WIND       PRES   REMARKS
ALBUQUERQUE    FAIR      72  38  29 SE6       30.17S
MORIARTY ARPT  FAIR      56  48  74 E5        30.25F
CLINES CORNERS FAIR      59  40  49 SW8       30.30S
BELEN          FAIR      65  42  42 CALM      30.15S
SOCORRO        FAIR      68  42  38 CALM      30.13S

$$
NMZ524>526-539-540-180900-
SOUTHCENTRAL MOUNTAINS

CITY           SKY/WX    TMP DP  RH WIND       PRES   REMARKS
RUIDOSO        FAIR      59  46  63 SW7       30.32F

$$
NMZ527>531-180900-
NORTHEAST HIGHLANDS/NORTHEAST PLAINS

CITY           SKY/WX    TMP DP  RH WIND       PRES   REMARKS
LAS VEGAS      FAIR      56  49  77 E9        30.30F
RATON          FAIR      55  50  83 NE6       30.24F
CLAYTON        FAIR      60  58  92 CALM      30.16S

$$
NMZ532>537-180900-
EASTCENTRAL PLAINS

CITY           SKY/WX    TMP DP  RH WIND       PRES   REMARKS
SANTA ROSA     FAIR      72  56  57 S10       30.13F
TUCUMCARI      FAIR      75  64  68 S13       30.07F
CANNON AFB     FAIR      67  67 100 S6        30.14F
CLOVIS AIRPORT FAIR      67  64  90 SW9       30.14S

$$
NMZ028-029-538-180900-
SOUTHEAST PLAINS

CITY           SKY/WX    TMP DP  RH WIND       PRES   REMARKS
ROSWELL        FAIR      73  61  65 S13       30.07F
ARTESIA        FAIR      72  63  73 SE6       30.09F
CARLSBAD       FAIR      73  64  73 SE9       30.06F
HOBBS          FAIR      68  63  83 CALM      30.10F


$$




USA.gov is the U.S. government's official web portal to all federal, state and local government web resources and services.